FW7800 Weather Reports


time (UTC)temp
C
wind
direction
speed
KPH
gust
KPH
rain 1hr
cm
rain 24hr
cm
rain mn
cm
humidity
%
barometer
mb
20260906080507 30 84 8.0 14.5 0.00 0.00 0.00 35 1019.2
20260906080007 31 108 6.4 11.3 0.00 0.00 0.00 35 1019.0
20260906075507 31 126 6.4 9.7 0.00 0.00 0.00 35 1019.2
20260906075006 30 96 6.4 9.7 0.00 0.00 0.00 35 1019.1
20260906074507 30 69 4.8 8.0 0.00 0.00 0.00 36 1019.2
20260906074007 30 75 4.8 8.0 0.00 0.00 0.00 36 1019.0
20260906073507 30 87 4.8 8.0 0.00 0.00 0.00 36 1019.1
20260906073007 30 123 4.8 6.4 0.00 0.00 0.00 36 1019.0
20260906072007 30 142 4.8 6.4 0.00 0.00 0.00 36 1019.0
20260906071507 29 140 4.8 6.4 0.00 0.00 0.00 36 1018.9
20260906071007 29 136 3.2 6.4 0.00 0.00 0.00 36 1018.9
20260906070507 29 233 1.6 3.2 0.00 0.00 0.00 37 1018.7
20260906070007 28 237 3.2 3.2 0.00 0.00 0.00 37 1018.7
20260906064507 28 202 1.6 4.8 0.00 0.00 0.00 38 1018.7
20260906064007 28 193 3.2 4.8 0.00 0.00 0.00 38 1018.5
20260906063007 27 174 1.6 3.2 0.00 0.00 0.00 39 1018.6
20260906062507 27 125 3.2 3.2 0.00 0.00 0.00 39 1018.5
20260906062007 27 243 3.2 3.2 0.00 0.00 0.00 39 1018.5
20260906061507 27 252 3.2 3.2 0.00 0.00 0.00 44 1018.5
20260906061007 26 196 3.2 6.4 0.00 0.00 0.00 45 1018.5
20260906060507 26 139 3.2 6.4 0.00 0.00 0.00 45 1018.6
20260906060008 27 54 3.2 6.4 0.00 0.00 0.00 44 1018.5
20260906055507 27 329 3.2 4.8 0.00 0.00 0.00 44 1018.4
20260906055007 27 337 3.2 4.8 0.00 0.00 0.00 44 1018.4
20260906054506 27 329 1.6 4.8 0.00 0.00 0.00 44 1018.5
20260906054007 26 294 1.6 3.2 0.00 0.00 0.00 44 1018.5
20260906053507 26 258 3.2 4.8 0.00 0.00 0.00 42 1018.5
20260906052007 25 270 3.2 4.8 0.00 0.00 0.00 44 1018.5
20260906051507 25 292 3.2 4.8 0.00 0.00 0.00 45 1018.4
20260906051007 25 275 3.2 4.8 0.00 0.00 0.00 45 1018.5
20260906045007 24 39 1.6 3.2 0.00 0.00 0.00 47 1018.2
20260906044507 24 59 1.6 3.2 0.00 0.00 0.00 48 1018.4
20260906044007 24 197 1.6 3.2 0.00 0.00 0.00 48 1018.2
20260906043506 24 206 1.6 3.2 0.00 0.00 0.00 48 1018.3
20260906043007 24 208 1.6 3.2 0.00 0.00 0.00 47 1018.2
20260906042507 24 115 1.6 3.2 0.00 0.00 0.00 47 1018.1
20260906042007 24 126 1.6 3.2 0.00 0.00 0.00 47 1018.0
20260906041507 24 65 1.6 3.2 0.00 0.00 0.00 48 1018.0
20260906041007 24 49 1.6 4.8 0.00 0.00 0.00 47 1017.8
20260906040507 24 53 3.2 4.8 0.00 0.00 0.00 47 1017.8
20260906040007 24 46 1.6 3.2 0.00 0.00 0.00 47 1017.9
20260906035007 24 30 1.6 3.2 0.00 0.00 0.00 48 1017.8
20260906034507 24 357 1.6 1.6 0.00 0.00 0.00 48 1017.9
20260906034007 24 191 1.6 3.2 0.00 0.00 0.00 48 1017.7
20260906033506 24 172 3.2 3.2 0.00 0.00 0.00 49 1017.8
20260906032507 23 213 1.6 3.2 0.00 0.00 0.00 50 1017.7
20260906032007 23 234 1.6 3.2 0.00 0.00 0.00 51 1017.6
20260906031506 24 284 1.6 3.2 0.00 0.00 0.00 50 1017.6
20260906031007 24 16 3.2 4.8 0.00 0.00 0.00 49 1017.6
20260906030506 24 54 3.2 6.4 0.00 0.00 0.00 49 1017.5
20260906030007 23 75 3.2 6.4 0.00 0.00 0.00 50 1017.5
20260906025507 24 77 1.6 6.4 0.00 0.00 0.00 49 1017.5
20260906025007 24 58 1.6 3.2 0.00 0.00 0.00 48 1017.6
20260906024506 24 32 1.6 3.2 0.00 0.00 0.00 48 1017.5
20260906024007 24 43 3.2 4.8 0.00 0.00 0.00 48 1017.3
20260906023507 24 92 3.2 4.8 0.00 0.00 0.00 49 1017.6
20260906023006 25 174 3.2 4.8 0.00 0.00 0.00 49 1017.2
20260906022007 25 307 1.6 4.8 0.00 0.00 0.00 49 1017.3
20260906021507 25 223 1.6 3.2 0.00 0.00 0.00 49 1017.3
20260906021006 25 238 1.6 1.6 0.00 0.00 0.00 49 1017.4
20260906020507 25 288 1.6 1.6 0.00 0.00 0.00 49 1017.4
20260906020007 25 338 1.6 3.2 0.00 0.00 0.00 49 1017.3
20260906015507 24 334 1.6 3.2 0.00 0.00 0.00 49 1017.5
20260906015007 25 279 1.6 1.6 0.00 0.00 0.00 49 1017.5
20260906014007 25 90 3.2 4.8 0.00 0.00 0.00 49 1017.4
20260906013506 25 200 1.6 3.2 0.00 0.00 0.00 49 1017.4
20260906013007 25 221 1.6 3.2 0.00 0.00 0.00 48 1017.6
20260906012507 25 355 1.6 3.2 0.00 0.00 0.00 49 1017.5
20260906012007 25 31 1.6 3.2 0.00 0.00 0.00 49 1017.4
20260906011507 25 238 3.2 3.2 0.00 0.00 0.00 48 1017.2
20260906010507 25 270 1.6 3.2 0.00 0.00 0.00 48 1017.6
20260906010006 25 225 0.0 1.6 0.00 0.00 0.00 48 1017.4
20260906005507 25 249 0.0 1.6 0.00 0.00 0.00 48 1017.6
20260906005007 25 310 1.6 4.8 0.00 0.00 0.00 48 1017.5
20260906003507 25 218 0.0 1.6 0.00 0.00 0.00 48 1017.5
20260906003006 25 222 1.6 1.6 0.00 0.00 0.00 48 1017.4
20260906001007 25 90 3.2 4.8 0.00 0.00 0.00 47 1017.6
20260906000507 26 184 3.2 4.8 0.00 0.00 0.00 46 1017.7
20260906000007 26 277 3.2 4.8 0.00 0.00 0.00 45 1017.7
20260905235506 26 262 3.2 4.8 0.00 0.00 0.00 45 1017.5
20260905235007 26 278 3.2 4.8 0.00 0.00 0.00 45 1017.6
20260905234507 26 313 3.2 4.8 0.00 0.00 0.00 45 1017.8
20260905234006 26 304 3.2 4.8 0.00 0.00 0.00 45 1017.7
20260905233507 26 312 1.6 3.2 0.00 0.00 0.00 46 1017.8
20260905233007 26 333 0.0 3.2 0.00 0.00 0.00 46 1017.8
20260905232506 26 181 0.0 1.6 0.00 0.00 0.00 46 1017.7
20260905232007 26 184 1.6 4.8 0.00 0.00 0.00 46 1017.9
20260905231507 26 204 3.2 4.8 0.00 0.00 0.00 45 1017.7
20260905231007 26 257 1.6 4.8 0.00 0.00 0.00 45 1017.9
20260905230506 26 266 3.2 4.8 0.00 0.00 0.00 45 1017.9
20260905230007 27 248 3.2 4.8 0.00 0.00 0.00 44 1017.8
20260905225507 27 201 3.2 4.8 0.00 0.00 0.00 44 1017.9
20260905225006 27 239 4.8 6.4 0.00 0.00 0.00 43 1017.7
20260905224507 27 331 6.4 8.0 0.00 0.00 0.00 43 1017.6
20260905224007 27 358 8.0 11.3 0.00 0.00 0.00 42 1017.6
20260905223507 27 345 8.0 11.3 0.00 0.00 0.00 44 1017.7
20260905223006 27 314 4.8 8.0 0.00 0.00 0.00 44 1017.6
20260905222507 27 304 4.8 8.0 0.00 0.00 0.00 45 1017.8
20260905222007 27 274 6.4 9.7 0.00 0.00 0.00 45 1017.5
20260905221007 27 321 8.0 14.5 0.00 0.00 0.00 45 1017.4
20260905220507 27 342 12.9 17.7 0.00 0.00 0.00 44 1017.5
20260905220007 27 4 16.1 17.7 0.00 0.00 0.00 45 1017.4
20260905215507 27 18 16.1 17.7 0.00 0.00 0.00 45 1017.3
20260905215007 27 7 16.1 17.7 0.00 0.00 0.00 45 1017.2
20260905214006 27 349 9.7 14.5 0.00 0.00 0.00 45 1017.3
20260905213507 27 345 8.0 11.3 0.00 0.00 0.00 45 1017.4
20260905213007 27 345 6.4 11.3 0.00 0.00 0.00 45 1017.2
20260905212507 27 9 8.0 11.3 0.00 0.00 0.00 40 1017.6
20260905211507 27 354 9.7 11.3 0.00 0.00 0.00 39 1017.4
20260905211007 27 356 9.7 14.5 0.00 0.00 0.00 40 1017.5
20260905210507 27 6 11.3 14.5 0.00 0.00 0.00 40 1017.5
20260905205506 27 356 11.3 14.5 0.00 0.00 0.00 40 1017.6
20260905205007 27 1 11.3 12.9 0.00 0.00 0.00 39 1017.6
20260905204507 27 6 11.3 14.5 0.00 0.00 0.00 40 1017.7
20260905204006 27 356 11.3 14.5 0.00 0.00 0.00 39 1017.9
20260905203506 27 345 12.9 14.5 0.00 0.00 0.00 40 1017.9
20260905203007 27 350 12.9 14.5 0.00 0.00 0.00 40 1017.9
20260905202507 27 351 9.7 14.5 0.00 0.00 0.00 40 1018.0
20260905202006 27 330 6.4 11.3 0.00 0.00 0.00 41 1018.0
20260905201507 27 321 4.8 6.4 0.00 0.00 0.00 40 1018.3
20260905201007 28 323 3.2 4.8 0.00 0.00 0.00 38 1018.4
20260905200009 28 283 3.2 4.8 0.00 0.00 0.00 38 1018.7
20260905195006 28 294 3.2 6.4 0.00 0.00 0.00 37 1019.1
20260905193007 28 269 1.6 3.2 0.00 0.00 0.00 37 1019.1
20260905192506 28 284 1.6 3.2 0.00 0.00 0.00 36 1019.0
20260905191007 28 314 1.6 1.6 0.00 0.00 0.00 36 1019.1
20260905190507 28 314 1.6 1.6 0.00 0.00 0.00 36 1019.0
20260905190007 28 336 3.2 3.2 0.00 0.00 0.00 36 1018.9
20260905185507 28 17 3.2 3.2 0.00 0.00 0.00 36 1018.9
20260905185007 28 36 3.2 4.8 0.00 0.00 0.00 36 1019.0
20260905184507 29 51 3.2 4.8 0.00 0.00 0.00 36 1019.0
20260905184007 29 52 3.2 4.8 0.00 0.00 0.00 36 1018.6
20260905183507 29 62 3.2 4.8 0.00 0.00 0.00 36 1018.7
20260905182506 29 89 4.8 6.4 0.00 0.00 0.00 36 1018.6
20260905182010 29 96 4.8 6.4 0.00 0.00 0.00 36 1018.5
20260905181507 29 70 6.4 9.7 0.00 0.00 0.00 36 1018.4
20260905181007 29 74 6.4 9.7 0.00 0.00 0.00 36 1018.3
20260905180507 29 101 8.0 9.7 0.00 0.00 0.00 36 1018.2
20260905175507 29 73 8.0 11.3 0.00 0.00 0.00 36 1018.0
20260905175007 30 65 9.7 11.3 0.00 0.00 0.00 36 1018.2
20260905174506 30 71 9.7 11.3 0.00 0.00 0.00 36 1018.1
20260905174007 30 74 9.7 11.3 0.00 0.00 0.00 36 1018.1
20260905173007 30 83 9.7 12.9 0.00 0.00 0.00 37 1018.0
20260905172506 30 86 11.3 14.5 0.00 0.00 0.00 37 1018.0
20260905171007 30 74 11.3 16.1 0.00 0.00 0.00 38 1017.8
20260905170506 30 81 9.7 12.9 0.00 0.00 0.00 38 1017.8
20260905170007 30 90 11.3 16.1 0.00 0.00 0.00 37 1017.7
20260905165507 30 126 9.7 16.1 0.00 0.00 0.00 37 1017.8
20260905165006 30 107 9.7 14.5 0.00 0.00 0.00 37 1017.7
20260905164507 30 59 9.7 14.5 0.00 0.00 0.00 36 1017.8
20260905164007 31 67 8.0 11.3 0.00 0.00 0.00 36 1017.7
20260905163506 31 86 8.0 16.1 0.00 0.00 0.00 36 1017.6
20260905162507 31 95 9.7 14.5 0.00 0.00 0.00 37 1017.5
20260905162007 31 110 8.0 14.5 0.00 0.00 0.00 37 1017.7
20260905161507 32 117 9.7 14.5 0.00 0.00 0.00 36 1017.7
20260905161007 31 126 11.3 14.5 0.00 0.00 0.00 36 1017.7
20260905160507 32 107 11.3 14.5 0.00 0.00 0.00 37 1017.8
20260905155507 32 121 9.7 14.5 0.00 0.00 0.00 36 1017.6
20260905155007 32 117 9.7 11.3 0.00 0.00 0.00 34 1017.9
20260905154506 32 109 12.9 17.7 0.00 0.00 0.00 33 1017.5
20260905154006 32 102 12.9 17.7 0.00 0.00 0.00 32 1017.6
20260905153507 32 90 11.3 17.7 0.00 0.00 0.00 32 1017.7
20260905152507 32 110 9.7 12.9 0.00 0.00 0.00 32 1017.7
20260905152006 33 96 9.7 14.5 0.00 0.00 0.00 31 1017.5
20260905151507 32 93 11.3 16.1 0.00 0.00 0.00 31 1017.4
20260905151007 32 111 12.9 16.1 0.00 0.00 0.00 30 1017.8
20260905150506 33 99 11.3 12.9 0.00 0.00 0.00 30 1017.8
20260905150007 33 101 11.3 16.1 0.00 0.00 0.00 30 1018.0
20260905145508 33 91 12.9 16.1 0.00 0.00 0.00 30 1017.5
20260905145007 33 99 12.9 17.7 0.00 0.00 0.00 30 1017.7
20260905144507 33 148 12.9 17.7 0.00 0.00 0.00 29 1017.6
20260905144006 33 102 14.5 17.7 0.00 0.00 0.00 29 1017.4
20260905143507 33 102 14.5 17.7 0.00 0.00 0.00 28 1017.4
20260905143007 33 100 14.5 17.7 0.00 0.00 0.00 28 1017.5
20260905142506 33 119 12.9 17.7 0.00 0.00 0.00 28 1017.6
20260905142007 33 118 14.5 19.3 0.00 0.00 0.00 28 1017.6
20260905141507 33 116 14.5 19.3 0.00 0.00 0.00 27 1017.6
20260905141006 33 102 11.3 16.1 0.00 0.00 0.00 27 1017.6
20260905140507 33 110 11.3 16.1 0.00 0.00 0.00 27 1017.6
20260905140007 33 123 14.5 19.3 0.00 0.00 0.00 27 1017.4
20260905135507 33 112 14.5 19.3 0.00 0.00 0.00 27 1017.7
20260905135006 33 99 14.5 20.9 0.00 0.00 0.00 27 1017.6
20260905134507 33 117 16.1 20.9 0.00 0.00 0.00 27 1017.7
20260905134007 33 118 16.1 19.3 0.00 0.00 0.00 27 1017.6
20260905133506 33 105 16.1 19.3 0.00 0.00 0.00 27 1017.6
20260905132507 33 107 12.9 19.3 0.00 0.00 0.00 27 1017.8
20260905132007 33 84 14.5 17.7 0.00 0.00 0.00 26 1017.9
20260905131506 33 84 14.5 17.7 0.00 0.00 0.00 27 1017.8
20260905131007 33 148 12.9 17.7 0.00 0.00 0.00 27 1017.7
20260905130507 33 129 14.5 17.7 0.00 0.00 0.00 26 1017.8
20260905130006 33 27 14.5 17.7 0.00 0.00 0.00 26 1017.9
20260905125507 33 118 14.5 17.7 0.00 0.00 0.00 26 1017.8
20260905125007 33 105 14.5 17.7 0.00 0.00 0.00 27 1017.8
20260905124006 33 106 12.9 17.7 0.00 0.00 0.00 27 1018.1
20260905123507 33 86 14.5 17.7 0.00 0.00 0.00 26 1018.0
20260905122507 33 101 12.9 14.5 0.00 0.00 0.00 27 1018.2
20260905121508 33 89 14.5 17.7 0.00 0.00 0.00 27 1018.4
20260905121006 33 62 12.9 14.5 0.00 0.00 0.00 27 1018.3
20260905120007 33 89 11.3 16.1 0.00 0.00 0.00 27 1018.6
20260905115006 34 147 11.3 17.7 0.00 0.00 0.00 27 1018.4
20260905114007 33 103 11.3 20.9 0.00 0.00 0.00 28 1018.7
20260905113507 33 119 9.7 14.5 0.00 0.00 0.00 27 1018.7
20260905112506 34 101 9.7 12.9 0.00 0.00 0.00 27 1018.7
20260905112007 33 148 9.7 11.3 0.00 0.00 0.00 27 1018.9
20260905111507 33 128 11.3 17.7 0.00 0.00 0.00 27 1019.0
20260905111006 33 131 14.5 17.7 0.00 0.00 0.00 27 1018.7
20260905110507 33 133 11.3 17.7 0.00 0.00 0.00 27 1019.0
20260905110006 33 134 8.0 16.1 0.00 0.00 0.00 27 1018.9
20260905105007 33 124 16.1 20.9 0.00 0.00 0.00 27 1018.9
20260905104506 33 118 14.5 17.7 0.00 0.00 0.00 27 1018.9
20260905104006 33 122 12.9 17.7 0.00 0.00 0.00 26 1018.8
20260905103507 33 116 11.3 17.7 0.00 0.00 0.00 26 1019.0
20260905103007 33 148 9.7 12.9 0.00 0.00 0.00 25 1019.0
20260905102506 33 195 9.7 11.3 0.00 0.00 0.00 25 1018.8
20260905102007 33 187 9.7 14.5 0.00 0.00 0.00 25 1019.1
20260905101507 33 136 8.0 14.5 0.00 0.00 0.00 25 1018.9
20260905101006 33 139 9.7 14.5 0.00 0.00 0.00 25 1019.2
20260905100507 33 134 11.3 17.7 0.00 0.00 0.00 25 1019.2
20260905100006 33 148 9.7 17.7 0.00 0.00 0.00 25 1019.0
20260905095506 33 184 8.0 11.3 0.00 0.00 0.00 25 1019.3
20260905095007 33 166 9.7 14.5 0.00 0.00 0.00 25 1019.4
20260905094507 33 148 8.0 14.5 0.00 0.00 0.00 25 1019.3
20260905094006 33 183 6.4 11.3 0.00 0.00 0.00 25 1019.3
20260905093507 33 187 8.0 11.3 0.00 0.00 0.00 25 1019.4
20260905093007 33 161 6.4 11.3 0.00 0.00 0.00 25 1019.4
20260905092507 33 175 4.8 11.3 0.00 0.00 0.00 25 1019.5
20260905092006 32 216 4.8 8.0 0.00 0.00 0.00 25 1019.5
20260905091507 32 214 6.4 8.0 0.00 0.00 0.00 25 1019.4
20260905091007 32 176 6.4 8.0 0.00 0.00 0.00 25 1019.6
20260905090506 32 128 4.8 8.0 0.00 0.00 0.00 25 1019.6
20260905090007 32 113 4.8 6.4 0.00 0.00 0.00 25 1019.6
20260905085507 32 148 4.8 8.0 0.00 0.00 0.00 25 1019.8
20260905085006 32 153 6.4 8.0 0.00 0.00 0.00 27 1019.7
20260905083008 31 160 6.4 8.0 0.00 0.00 0.00 29 1019.7
20260905082507 30 194 8.0 11.3 0.00 0.00 0.00 30 1019.9
20260905082006 30 233 8.0 11.3 0.00 0.00 0.00 30 1019.8
20260905081506 30 211 8.0 9.7 0.00 0.00 0.00 31 1020.0
20260905081007 30 176 6.4 8.0 0.00 0.00 0.00 31 1019.9